Regional Weather Roundup
Issued by NWS Sioux Falls, SD

Home | Current Version | Previous Version | Text Only | Print | Product List | Glossary Off
Versions: 1 2 3 4 5 6 7 8 9 10 11 12 13 14 15 16 17 18 19 20 21 22 23 24 25 26 27 28 29 30 31 32 33 34 35 36 37 38 39 40 41 42 43 44 45 46 47 48 49 50

369
ASUS43 KFSD 251110
RWRFSD

WEATHER ROUNDUP FOR SE SOUTH DAKOTA/SW MINNESOTA/NW IOWA
NATIONAL WEATHER SERVICE SIOUX FALLS SD
600 AM CDT SAT MAR 25 2017

NOTE: "FAIR" INDICATES FEW OR NO CLOUDS BELOW 12,000 FEET WITH NO
SIGNIFICANT WEATHER AND OR OBSTRUCTIONS TO VISIBILITY.


SDZ038>040-050-052>070-251200-
SOUTHEAST SOUTH DAKOTA

CITY           SKY/WX    TMP DP  RH WIND       PRES   REMARKS
BROOKINGS      CLOUDY    32  30  92 E14       30.11S WCI  22
CHAMBERLAIN    CLOUDY    35  35  99 E6        30.09F
HURON          CLOUDY    35  32  88 E7        30.11F WCI  29
MADISON        CLOUDY    32  32 100 E14       30.11R FOG     WCI  22
MITCHELL       CLOUDY    35  32  88 E10       30.13R WCI  27
SIOUX FALLS    CLOUDY    35  34  96 NE15      30.11R FOG     WCI  25
WINNER         FOG       32  31  96 SE12      30.07F VSB 1/4 WCI  23
YANKTON        CLOUDY    36  34  93 NE13      30.10R
$$

MNZ071-072-080-081-089-090-097-098-251200-
SOUTHWEST MINNESOTA

CITY           SKY/WX    TMP DP  RH WIND       PRES   REMARKS
FAIRMONT       CLOUDY    37  34  89 NE15      30.09R
JACKSON        CLOUDY    36  34  93 NE16G22   30.09R FOG
LUVERNE        CLOUDY    34  32  93 NE10      30.11R FOG     WCI  26
MARSHALL       CLOUDY    34  32  92 E12       30.15S WCI  25
MONTEVIDEO     CLOUDY    36  34  93 SE12      30.18R
PIPESTONE      FOG       34  30  86 E9        30.10R VSB 1/2 WCI  26
REDWOOD FALLS  CLOUDY    37  32  82 NE7       30.15R
TRACY          CLOUDY    35  34  96 NE12      30.14R FOG     WCI  27
WINDOM         CLOUDY    36  34  93 N9        30.10S
WORTHINGTON    CLOUDY    34  33  96 NE17      30.09R FOG     WCI  23
$$

IAZ001>003-012>014-020>022-031-032-NEZ013-014-SDZ071-251200-
NORTHWEST IOWA

CITY           SKY/WX    TMP DP  RH WIND       PRES   REMARKS
CHEROKEE       CLOUDY    37  37  99 NE12G21   30.04R FOG
ESTHERVILLE    CLOUDY    36  36 100 NE18      30.06R
LE MARS        CLOUDY    37  37 100 NE12G17   30.07R FOG
ORANGE CITY    CLOUDY    36  36 100 NE10G16   30.06S FOG
SHELDON        CLOUDY    36  36 100 NE15G22   30.06R FOG
SIOUX CITY     CLOUDY    38  38 100 N16       30.05R FOG
SPENCER        CLOUDY    37  36  96 NE18      30.06R
STORM LAKE     CLOUDY    37  36  93 NE24G31   30.00S FOG
$$

ABBREVIATIONS USED IN REMARKS
   TC - TEMPERATURE IN CELSIUS
  WCI - WIND CHILL INDEX
   HX - HEAT INDEX
  VSB - VISIBILITY





USA.gov is the U.S. government's official web portal to all federal, state and local government web resources and services.